Location: Azul
(36.7830°S, 59.8500°W)
Time: 12:32:46
(UTC-03:00)

ISS - Pass Details

Date: 22 February 2018
Orbit: 403 x 406 km, 51.6° (Epoch: 26 February)

Event Time Altitude Azimuth Distance (km) Brightness Sun altitude
Rises 22:01:08 0° 264° (W) 2,345 1.0 -25.2°
Reaches altitude 10° 22:04:02 10° 236° (SW) 1,490 0.1 -25.7°
Maximum altitude 22:05:50 14° 203° (SSW) 1,286 -0.6 -25.9°
Drops below altitude 10° 22:07:38 10° 170° (S) 1,496 -0.7 -26.2°
Enters shadow 22:07:39 10° 170° (S) 1,497 -0.7 -26.2°
